Presure
222 223 219 216 216 216 208 195 198 189 191 161 189 175 183 175 183 183 179 174 163 183 175 179 187 190 194 166 201 207 193 136
233 232 218 202 201 197 202 200 199 194 186 121 97 184 180 180 168 182 180 183 185 194 197 200 203 118 145 202 153 202 123 208
199 193 197 205 206 198 190 182 184 186 103 170 187 177 177 176 172 128 126 202 201 206 204 204 205 206 205 206 205 204 204 203
81 210 208 187 180 185 170 171 184 183 183 179 184 179 181 193 200 168 203 188 204 196 194 200 194 196 194 194 205 199 201 196
207 194 182 180 182 173 190 186 181 179 179 178 178 179 179 142 193 134 193 192 139 199 203 203 200 205 203 219 224 229 196 223
195 181 183 173 169 141 185 184 182 181 181 170 125 169 181 138 143 125 192 194 201 209 209 198 151 224 192 220 225 228 225 220
179 181 175 172 174 179 180 179 180 173 179 163 169 174 123 144 175 192 202 201 201 211 214 213 206 228 224 214 231 237 226 227
182 178 181 178 176 182 178 179 179 175 178 184 171 192 112 194 202 200 207 205 212 212 217 218 219 221 224 230 239 241 250 258
183 180 182 174 173 179 181 180 178 183 182 186 198 194 195 197 199 207 212 214 160 225 213 221 228 238 252 256 256 265 272 281
179 177 175 175 176 182 181 168 181 174 199 190 195 201 202 204 208 125 139 177 223 214 230 235 250 259 261 272 296 331 333 371
182 179 184 170 182 181 150 180 155 199 191 198 199 201 207 214 197 210 225 228 216 238 251 260 285 310 307 340 365 329 284 285
180 181 185 182 132 180 185 196 197 203 195 196 204 210 213 211 222 224 226 234 248 253 265 305 281 345 274 272 289 300 391 439
183 179 179 124 182 189 195 201 190 193 199 204 205 205 214 226 232 232 241 254 271 334 339 350 268 279 289 437 428 423 411 401
176 133 133 188 191 200 197 194 192 200 202 206 204 224 236 215 241 253 346 339 292 354 340 296 290 448 433 427 414 406 406 397
105 121 186 194 195 187 195 187 201 202 212 205 227 226 247 260 293 313 268 297 311 279 295 451 439 425 415 408 398 397 395 391
134 179 125 194 186 195 188 203 205 209 225 236 249 251 279 364 275 339 299 300 315 420 437 429 419 409 408 390 380 370 368 369
157 105 117 198 199 191 203 208 226 233 251 257 268 351 361 353 293 297 316 395 437 420 416 414 402 390 381 366 363 361 358 359
149 188 193 192 197 210 219 235 242 283 349 349 346 346 299 305 314 339 433 429 409 400 406 393 382 366 365 355 352 350 348 346
195 192 189 208 211 232 233 243 325 327 295 271 295 302 303 323 401 428 412 403 390 404 385 375 361 355 353 341 371 469 461 457
Wind_Speed
41 42 42 43 46 42 39 44 45 47 47 43 50 49 54 58 58 61 62 65 59 68 66 71 76 76 79 57 81 83 69 49
37 35 30 34 36 38 38 41 43 43 46 54 38 54 56 60 63 66 68 72 73 75 77 79 81 45 52 84 54 85 48 89
37 41 40 37 38 38 38 42 46 48 36 57 54 58 61 64 68 43 43 75 77 78 79 81 84 85 86 89 89 88 89 90
25 36 35 40 46 45 55 56 52 54 54 59 61 62 67 75 77 63 78 72 82 81 82 83 84 86 85 86 94 89 90 88
36 33 42 47 48 57 53 55 58 60 64 63 67 69 72 58 80 58 84 85 61 90 89 90 91 92 92 92 92 95 76 94
36 46 46 56 61 53 59 62 65 67 69 66 47 69 82 49 63 56 89 92 93 93 95 92 63 102 83 101 102 104 100 97
50 50 55 62 63 64 67 69 69 70 77 67 75 81 49 69 85 93 95 96 98 102 103 105 97 113 108 101 114 116 104 105
49 54 56 61 65 69 72 74 76 77 83 90 80 94 56 97 98 100 103 105 108 108 114 114 113 113 115 119 122 121 125 127
52 57 60 66 71 73 77 79 82 87 91 94 94 97 99 101 103 108 110 113 76 122 110 119 123 131 135 135 135 139 142 140
59 63 66 72 74 77 80 76 88 85 92 96 100 101 103 107 111 58 67 94 124 116 131 135 141 141 136 140 138 123 122 106
61 68 71 70 77 81 68 88 73 93 98 99 102 106 111 114 106 115 127 129 122 136 140 142 142 140 131 124 115 110 108 108
67 71 73 79 58 85 90 93 96 98 100 103 109 114 118 118 126 129 129 133 139 140 142 131 125 121 110 113 116 116 82 59
72 76 80 57 87 91 94 94 99 102 107 112 113 113 125 130 133 134 136 140 141 124 120 118 114 116 119 74 70 62 61 61
78 54 55 87 91 93 96 100 103 109 113 120 115 133 134 118 133 137 120 119 121 117 114 115 114 67 67 64 61 59 55 53
37 52 87 91 93 97 101 102 111 114 123 119 134 129 135 138 129 121 122 115 110 110 114 69 65 63 63 59 59 56 54 52
58 87 53 96 99 104 102 114 116 120 130 134 133 136 141 115 122 111 111 112 116 85 70 64 61 60 56 54 57 56 55 53
73 43 56 101 106 107 117 121 131 132 137 137 139 117 114 112 110 110 114 98 73 70 65 59 57 58 55 57 59 58 57 56
68 96 100 105 112 120 128 131 136 131 114 111 111 112 108 111 113 116 79 69 68 66 59 57 56 59 57 58 59 59 57 55
96 100 103 115 120 128 130 132 116 110 109 108 109 109 111 115 99 76 72 65 64 58 57 56 58 60 58 58 63 46 43 43
Wind_Direction
294 294 294 291 289 289 288 290 292 294 297 300 299 300 300 299 300 299 300 300 300 300 298 297 296 294 292 290 293 294 288 258
297 295 293 292 291 294 297 297 299 301 299 301 299 299 298 298 299 299 300 299 298 297 294 293 294 279 290 296 283 293 267 291
292 292 293 298 301 301 301 298 299 299 292 305 299 298 297 297 299 302 301 295 295 295 296 297 296 295 293 291 291 290 289 288
317 300 299 299 299 300 301 301 300 300 301 300 302 302 304 309 304 299 302 299 299 300 299 297 297 296 295 292 288 288 287 287
298 296 296 298 300 299 304 302 301 303 302 302 303 304 305 303 306 306 305 304 290 299 298 297 296 293 291 293 293 293 288 283
293 294 300 297 303 295 306 305 305 305 305 302 286 305 308 288 300 291 304 303 301 301 299 295 286 301 296 297 295 293 290 287
294 301 302 301 301 305 304 304 306 306 308 302 305 310 282 301 303 303 302 302 301 303 303 301 301 302 299 294 297 295 291 289
301 300 301 300 302 304 304 307 308 308 308 307 311 304 295 305 306 304 305 305 305 304 305 305 302 300 298 297 294 292 291 290
301 301 301 301 303 305 305 307 307 307 306 306 303 304 305 305 305 307 307 306 303 304 303 302 301 299 297 295 296 294 293 291
301 300 300 301 303 304 306 307 306 305 303 305 304 305 306 306 307 303 305 306 306 305 302 301 299 299 298 297 295 294 294 293
298 298 298 302 303 304 307 306 305 301 303 304 305 306 306 308 308 308 306 304 305 303 301 300 297 294 296 296 298 296 292 290
298 299 300 303 309 303 304 303 303 306 304 305 308 309 309 308 308 306 305 304 302 302 300 298 297 300 298 297 296 295 296 296
301 302 303 309 302 302 302 304 304 304 306 308 308 310 309 307 307 306 304 302 299 300 300 301 298 298 298 299 298 298 296 295
302 310 311 301 301 304 305 305 305 307 308 309 310 307 306 308 305 304 303 302 302 303 303 301 300 302 300 299 299 297 295 292
313 313 302 301 303 304 305 305 308 308 309 310 307 309 305 305 304 303 303 304 303 301 302 308 306 303 301 301 298 297 295 291
304 303 308 304 305 305 305 308 309 311 308 306 304 306 302 308 302 305 304 305 306 308 309 308 305 303 302 301 299 299 297 293
303 309 312 306 307 307 310 310 308 310 308 306 303 309 309 307 305 306 307 309 311 311 310 308 307 304 305 302 299 297 294 291
303 304 307 307 309 310 307 308 311 309 309 310 310 311 307 309 309 308 313 313 312 312 312 309 308 306 307 304 302 298 295 292
307 307 307 311 309 311 312 310 313 313 312 310 310 311 310 310 312 313 313 314 314 314 311 311 310 310 311 307 304 305 300 295